Location: Bullenkuhlen
(53.7689°N, 9.7495°E)
Time: 07:26:53
(UTC+00:00)

Cosmos 676 Rocket - Visible Passes

Search period start: 11 August 2020 00:00
Search period end: 21 August 2020 00:00
Orbit: 753 x 785 km, 74.0° (Epoch: 10 August)

Date Brightness Start Highest point End Pass type
(mag) Time Alt. Az. Time Alt. Az. Time Alt. Az.
11 Aug 7.1 03:01:14 10° N 03:03:37 13° NNE 03:06:00 10° NE visible
11 Aug 4.6 21:08:12 10° SW 21:13:29 59° WNW 21:18:48 10° NNE visible
11 Aug 6.8 22:53:14 10° WNW 22:56:45 17° NW 23:00:17 10° N visible
12 Aug 7.4 02:25:13 10° N 02:26:18 11° NNE 02:27:21 10° NNE visible
12 Aug 4.1 20:31:21 10° SSW 20:36:42 86° WNW 20:42:06 10° NNE visible
12 Aug 6.5 22:15:26 10° W 22:19:37 22° NW 22:23:48 10° N visible
13 Aug 4.1 19:54:45 10° S 20:00:01 64° ESE 20:05:20 10° NNE visible
13 Aug 6.0 21:37:52 10° WSW 21:42:33 30° NW 21:47:15 10° NNE visible
13 Aug 7.2 23:24:58 10° NW 23:26:32 11° NNW 23:28:06 10° N visible
14 Aug 7.0 02:52:50 10° N 02:56:07 16° NNE 02:59:22 10° ENE visible
14 Aug 5.4 21:00:32 10° WSW 21:05:35 41° NW 21:10:40 10° NNE visible
14 Aug 7.1 22:46:32 10° WNW 22:49:13 14° NNW 22:51:54 10° N visible
15 Aug 7.2 02:16:28 10° N 02:18:51 13° NNE 02:21:13 10° NE visible
15 Aug 4.7 20:23:26 10° SW 20:28:43 59° WNW 20:34:01 10° NNE visible
15 Aug 6.9 22:08:28 10° WNW 22:11:59 17° NW 22:15:30 10° N visible
16 Aug 7.5 01:40:28 10° N 01:41:31 10° NNE 01:42:34 10° NNE visible
16 Aug 6.5 03:21:03 10° NNW 03:25:35 27° NE 03:30:06 10° ESE visible
16 Aug 4.1 19:46:35 10° SSW 19:51:56 86° WNW 19:57:20 10° NNE visible
16 Aug 6.6 21:30:40 10° W 21:34:50 22° NW 21:39:01 10° N visible
17 Aug 7.0 02:44:32 10° N 02:48:31 21° NE 02:52:28 10° E visible
17 Aug 6.1 20:53:06 10° WSW 20:57:47 30° NW 21:02:29 10° NNE visible
17 Aug 7.4 22:40:13 10° NW 22:41:46 11° NNW 22:43:19 10° N visible
18 Aug 7.2 02:08:04 10° N 02:11:20 16° NNE 02:14:35 10° ENE visible
18 Aug 5.5 20:15:46 10° WSW 20:20:49 41° NW 20:25:54 10° NNE visible
18 Aug 7.2 22:01:47 10° WNW 22:04:27 14° NNW 22:07:08 10° N visible
19 Aug 7.4 01:31:43 10° N 01:34:05 13° NNE 01:36:26 10° NE visible
19 Aug 5.8 03:12:51 10° NNW 03:17:49 37° NE 03:22:42 10° ESE visible
19 Aug 4.8 19:38:40 10° SW 19:43:57 59° WNW 19:49:15 10° NNE visible
19 Aug 7.1 21:23:43 10° WNW 21:27:13 17° NW 21:30:44 10° N visible
20 Aug 7.6 00:55:44 10° N 00:56:45 10° NNE 00:57:45 10° NNE visible
20 Aug 6.4 02:36:17 10° NNW 02:40:50 27° NE 02:45:18 10° ESE visible
20 Aug 6.7 20:45:54 10° W 20:50:04 22° NW 20:54:15 10° N visible
